Find Starlink 11081

NORAD ID: 60405 Int'l Des: 2024-141 Owner: SPXS Country: US Constellation: starlink operational
LEOCIRCULAR

現在のビュー

3D地球を読み込み中...

About Starlink 11081

Starlink 11081 (NORAD 60405) is a starlink constellation satellite (v2 mini d2c) launched Aug 10, 2024 by SPXS of US. It operates in LEO, CIRCULAR orbit with a mass of 960.00 kg.

Starlink 11081について

説明を読み込み中...

次回通過

Passes for default location (London). Set your location on the main map for personalized predictions.

高度履歴

Loading altitude history...

軌道要素

1 60405U 24141H 26167.72119229 .00001076 00000-0 13742-4 0 9997
2 60405 53.1600 318.3121 0001060 67.6864 292.4266 15.69705600107249
Epoch: Jun 16, 2026 • Age: 23 hours

現在のステータス

高度 365.5 km
速度 7.70 km/s
衛星直下点 52.85°N, 101.53°W
打ち上げ日 Aug 10, 2024
運用期間 1.8 years
タイプ internet

技術仕様

分類 Payload
質量 960.00 kg
乾燥質量 910.00 kg
総質量 960.00 kg
長さ 0.30 m
直径 4.10 m
スパン 29.00 m
形状 Box + pan
製造者 SPXS
バスタイプ Starlink V2MD
フェーズステータス In Orbit
所有者/国 SPXS/US

Most Searched